ISS (ZARYA), 25544

Orbit data source: Space-Track

The International Space Station (ISS) is a collaborative project involving NASA, Roscosmos, ESA, JAXA, and CSA. It is the largest human-made structure in low Earth orbit (LEO). It serves as a microgravity laboratory where scientific research is conducted in various fields, such as astrobiology, astronomy, meteorology, and physics. Astronauts have continuously inhabited the ISS since Nov 2000, and the space station supports testing spacecraft systems and equipment needed for long-duration missions to the Moon and Mars.

Loading next visibility...
Identifier
25544, 1998-067A
Orbit
LEO
Country
Flag of CISCIS
Related business
Manufacturer
Khrunichev
Mission
Operational Civil Spaceship
Bus & Motor
77KS, Unknown motor
Mass
20,351 kg wet, ~19,000 kg dry
Launch date (UTC)
1998-11-20 (27 years ago)
Launch vehicle
PROTON-K
Launch site
Tyuratam Missile And Space Complex (TTMTR)
Object type
Payload
Rocket body
Debris
Shape & HBR
Irr, 66.1 m
Radar Cross Section
5762.400 m², Large (>1 m²)

Expand to show TLE details & history
Last TLE update: 23 hours ago

TLE from 23 hours ago
0 ISS (ZARYA)
1 25544U 98067A   25293.78246337  .00016075  00000-0  29626-3 0  9998
2 25544  51.6343  44.6559 0004365 316.7773  43.2873 15.49292312534646
Epoch: 2025-10-20T18:46Z
TLE epoch observation values (Epoch: 2025-10-20T18:46:44.835Z)
Latitude
0.00003°
Longitude
93.48928°
Altitude
417.377 km
Speed
7.663 km/s
True Right ascension
02h 58m 37s
True Declination
0° 00' 00"
Sunlit
Object was in full shadow at epoch
Visualization orbit readout
Latitude
Unknown
Longitude
Unknown
Altitude
Unknown
Speed
Unknown
Apparent Right ascension
Unknown
Apparent Declination
Unknown
Sunlit
N/A
Visualization observer readout
Local Sidereal Time
12:47:34
Azimuth
Unknown
Elevation
Unknown
Doppler factor
Unknown
Orbital elements
Apogee altitude
422.271 km
Perigee altitude
416.337 km
Semi-major axis
6,797.441 km
Eccentricity
0.00044
Inclination
51.6343°
RAAN
44.6559°
Arg. of periapsis
316.7773°
True anomaly
43.32161°
Mean anomaly
43.2873°
Eccentric anomaly
43.30445°
Mean motion
3.8728 °/min
Orbital period
92.96 mins
BSTAR
0.00029626
Loading maneuver chart data...
Computing Atmospheric mass density...

Documentation

Showing up to 5 results
|